EDW24C LSZH-BIKF

Flight info

Callsign EDW24C
Flight time 3h 26m
Altitude 34000
Route VEBIT T10 TORPA DCT EDOPI DCT GIVOR DCT SORAL DCT IBERA DCT RITAX DCT BUB DCT VICOT DCT TULIP DCT TOPPA DCT LARDI DCT CUTEL/N0454F360 DCT ODMIX DCT MOCHA DCT NALAN/M080F360 DCT 62N010W DCT ALDAN DCT ASRUN ASRUN2H
Aircraft A320/M-SDE3FGHIRWY/LB1

Departure

Time 2026-04-30 18:45
Airport Zürich Airport (LSZH)

Arrival

Time 2026-04-30 22:11
Airport Keflavik International Airport (BIKF)
Time Latitude Longitude Altitude Speed Heading
2026-04-30 18:25 47.45439 8.55569 1407 ft 0 kts 186°
2026-04-30 18:33 47.45485 8.55579 1406 ft 4 kts 168°
2026-04-30 18:33 47.45506 8.55569 1409 ft 4 kts 147°
2026-04-30 18:34 47.45522 8.55542 1410 ft 4 kts 103°
2026-04-30 18:34 47.45524 8.55530 1410 ft 0 kts 96°
2026-04-30 18:39 47.45522 8.55553 1412 ft 7 kts 96°
2026-04-30 18:39 47.45513 8.55672 1407 ft 16 kts 96°
2026-04-30 18:40 47.45502 8.55839 1410 ft 17 kts 96°
2026-04-30 18:40 47.45494 8.55958 1409 ft 18 kts 96°
2026-04-30 18:40 47.45481 8.56138 1407 ft 18 kts 96°
2026-04-30 18:40 47.45526 8.56302 1411 ft 17 kts 50°
2026-04-30 18:41 47.45594 8.56472 1416 ft 22 kts 90°
2026-04-30 18:41 47.45578 8.56714 1421 ft 25 kts 95°
2026-04-30 18:41 47.45571 8.56961 1421 ft 23 kts 72°
2026-04-30 18:41 47.45663 8.56943 1424 ft 18 kts 285°
2026-04-30 18:42 47.45682 8.56727 1418 ft 32 kts 276°
2026-04-30 18:42 47.45832 8.54630 1394 ft 161 kts 276°
2026-04-30 18:42 47.45942 8.52937 1956 ft 162 kts 277°
2026-04-30 18:45 47.38265 8.32646 7239 ft 285 kts 242°
2026-04-30 18:45 47.37344 8.30038 8004 ft 288 kts 242°
2026-04-30 18:45 47.36415 8.27400 8771 ft 291 kts 242°
2026-04-30 18:46 47.35487 8.24768 9522 ft 294 kts 242°
2026-04-30 18:46 47.34538 8.22084 10280 ft 296 kts 242°
2026-04-30 18:46 47.33557 8.19319 10605 ft 315 kts 242°
2026-04-30 18:46 47.32500 8.16350 10758 ft 338 kts 242°
2026-04-30 18:47 47.31619 8.13023 10884 ft 360 kts 259°
2026-04-30 18:47 47.31592 8.09264 11010 ft 379 kts 282°
2026-04-30 18:47 47.32620 8.05613 11137 ft 395 kts 306°
2026-04-30 18:47 47.34578 8.02735 11453 ft 403 kts 322°
2026-04-30 18:48 47.36768 8.00112 11940 ft 408 kts 323°
2026-04-30 18:48 47.38988 7.97458 12425 ft 413 kts 323°
2026-04-30 18:48 47.41228 7.94772 12955 ft 416 kts 322°
2026-04-30 18:48 47.43474 7.92064 13495 ft 419 kts 323°
2026-04-30 18:49 47.45739 7.89323 13980 ft 423 kts 323°
2026-04-30 18:49 47.48020 7.86557 14452 ft 425 kts 322°
2026-04-30 18:49 47.50279 7.83808 14896 ft 427 kts 322°
2026-04-30 18:49 47.52580 7.81002 15319 ft 430 kts 323°
2026-04-30 18:50 47.54901 7.78175 15726 ft 434 kts 323°
2026-04-30 18:50 47.57242 7.75328 16157 ft 436 kts 324°
2026-04-30 18:50 47.59602 7.72455 16523 ft 440 kts 323°
2026-04-30 18:50 47.61976 7.69561 16953 ft 442 kts 324°
2026-04-30 18:51 47.64364 7.66645 17369 ft 445 kts 323°
2026-04-30 18:51 47.66757 7.63715 17818 ft 447 kts 324°
2026-04-30 18:51 47.69158 7.60764 18212 ft 450 kts 323°
2026-04-30 18:51 47.71574 7.57792 18610 ft 451 kts 322°
2026-04-30 18:52 47.73994 7.54820 18979 ft 453 kts 322°
2026-04-30 18:52 47.76426 7.51832 19321 ft 454 kts 322°
2026-04-30 18:52 47.78841 7.48857 19641 ft 457 kts 322°
2026-04-30 18:52 47.81294 7.45829 19953 ft 459 kts 322°
2026-04-30 18:53 47.83758 7.42789 20268 ft 461 kts 322°
2026-04-30 18:53 47.86240 7.39725 20590 ft 463 kts 322°
2026-04-30 18:53 47.88729 7.36642 20896 ft 465 kts 322°
2026-04-30 18:53 47.91222 7.33549 21205 ft 467 kts 322°
2026-04-30 18:54 47.93723 7.30446 21502 ft 469 kts 322°
2026-04-30 18:54 47.96239 7.27325 21791 ft 471 kts 322°
2026-04-30 18:54 47.98757 7.24195 22074 ft 472 kts 322°
2026-04-30 18:54 48.01290 7.21036 22304 ft 475 kts 322°
2026-04-30 18:55 48.03840 7.17850 22496 ft 479 kts 322°
2026-04-30 18:55 48.08977 7.11425 23014 ft 483 kts 322°
2026-04-30 18:55 48.11528 7.08231 23265 ft 485 kts 322°
2026-04-30 18:56 48.16721 7.01723 23801 ft 488 kts 322°
2026-04-30 18:56 48.19327 6.98449 24091 ft 488 kts 322°
2026-04-30 18:56 48.21919 6.95182 24444 ft 485 kts 322°
2026-04-30 18:57 48.27077 6.88658 25085 ft 484 kts 322°
2026-04-30 18:57 48.29647 6.85405 25389 ft 483 kts 322°
2026-04-30 18:57 48.32216 6.82152 25691 ft 483 kts 322°
2026-04-30 18:58 48.37316 6.75680 26352 ft 481 kts 322°
2026-04-30 18:58 48.39872 6.72429 26689 ft 480 kts 322°
2026-04-30 18:58 48.42423 6.69183 27036 ft 479 kts 322°
2026-04-30 18:59 48.47503 6.62711 27728 ft 477 kts 322°
2026-04-30 19:00 48.55081 6.53011 28787 ft 475 kts 322°
2026-04-30 19:00 48.57593 6.49780 29145 ft 474 kts 321°
2026-04-30 19:00 48.62802 6.43768 29811 ft 469 kts 333°
2026-04-30 19:01 48.68860 6.40412 30465 ft 461 kts 352°
2026-04-30 19:01 48.72034 6.39884 30749 ft 457 kts
2026-04-30 19:02 48.78356 6.40400 31340 ft 453 kts
2026-04-30 19:02 48.84639 6.41047 31951 ft 451 kts
2026-04-30 19:03 48.90846 6.41668 32551 ft 449 kts
2026-04-30 19:03 48.97065 6.42291 33162 ft 447 kts
2026-04-30 19:04 49.03254 6.42923 33759 ft 444 kts
2026-04-30 19:04 49.09423 6.42604 34225 ft 451 kts 347°
2026-04-30 19:05 49.15405 6.39297 34252 ft 460 kts 342°
2026-04-30 19:06 49.27325 6.32255 34273 ft 461 kts 342°
2026-04-30 19:06 49.36313 6.26973 34276 ft 461 kts 342°
2026-04-30 19:07 49.45310 6.21692 34279 ft 462 kts 341°
2026-04-30 19:08 49.57300 6.14600 34289 ft 463 kts 341°
2026-04-30 19:09 49.66336 6.09232 34293 ft 464 kts 341°
2026-04-30 19:09 49.72356 6.05626 34293 ft 464 kts 341°
2026-04-30 19:10 49.84374 5.98436 34286 ft 464 kts 341°
2026-04-30 19:11 49.93421 5.92998 34290 ft 464 kts 341°
2026-04-30 19:12 49.99448 5.89356 34285 ft 465 kts 341°
2026-04-30 19:12 50.05483 5.85700 34276 ft 465 kts 341°
2026-04-30 19:13 50.17507 5.78395 34280 ft 465 kts 341°
2026-04-30 19:14 50.23544 5.74715 34283 ft 465 kts 341°
2026-04-30 19:14 50.29569 5.71034 34276 ft 465 kts 340°
2026-04-30 19:15 50.35597 5.67333 34281 ft 465 kts 340°
2026-04-30 19:15 50.44590 5.61798 34283 ft 464 kts 340°
2026-04-30 19:16 50.50605 5.58080 34287 ft 464 kts 340°
2026-04-30 19:17 50.59635 5.52477 34273 ft 465 kts 340°
2026-04-30 19:17 50.68624 5.46882 34289 ft 465 kts 340°
2026-04-30 19:18 50.77669 5.41244 34282 ft 465 kts 340°
2026-04-30 19:19 50.83692 5.37477 34285 ft 465 kts 340°
2026-04-30 19:19 50.92710 5.31787 34281 ft 465 kts 340°
2026-04-30 19:20 50.98723 5.27988 34283 ft 465 kts 340°
2026-04-30 19:21 51.07700 5.22296 34285 ft 465 kts 340°
2026-04-30 19:22 51.19724 5.14641 34277 ft 466 kts 340°
2026-04-30 19:23 51.37767 5.03064 34289 ft 467 kts 340°
2026-04-30 19:24 51.46812 4.97222 34297 ft 467 kts 340°
2026-04-30 19:25 51.61877 4.87469 34300 ft 466 kts 339°
2026-04-30 19:26 51.72895 4.80258 34283 ft 467 kts 339°
2026-04-30 19:27 51.82917 4.73672 34291 ft 468 kts 339°
2026-04-30 19:28 51.90993 4.68354 34302 ft 468 kts 339°
2026-04-30 19:29 52.03033 4.60388 34298 ft 468 kts 339°
2026-04-30 19:30 52.15101 4.52351 34316 ft 468 kts 339°
2026-04-30 19:31 52.27165 4.44249 34314 ft 468 kts 338°
2026-04-30 19:31 52.36160 4.38187 34319 ft 468 kts 339°
2026-04-30 19:32 52.42177 4.34126 34321 ft 467 kts 338°
2026-04-30 19:32 52.48190 4.30035 34316 ft 467 kts 338°
2026-04-30 19:33 52.54155 4.25972 34328 ft 466 kts 338°
2026-04-30 19:33 52.60154 4.21892 34327 ft 466 kts 338°
2026-04-30 19:34 52.66153 4.17796 34321 ft 466 kts 338°
2026-04-30 19:35 52.75142 4.11618 34327 ft 466 kts 338°
2026-04-30 19:35 52.81079 4.07515 34337 ft 465 kts 338°
2026-04-30 19:36 52.87059 4.03378 34323 ft 465 kts 338°
2026-04-30 19:36 52.96025 3.97149 34298 ft 467 kts 338°
2026-04-30 19:37 53.02028 3.92977 34313 ft 468 kts 338°
2026-04-30 19:37 53.07996 3.88814 34305 ft 468 kts 338°
2026-04-30 19:38 53.14008 3.84597 34324 ft 469 kts 338°
2026-04-30 19:38 53.20015 3.80373 34326 ft 469 kts 338°
2026-04-30 19:39 53.26030 3.76134 34335 ft 468 kts 338°
2026-04-30 19:39 53.32028 3.71890 34329 ft 468 kts 338°
2026-04-30 19:40 53.38028 3.67636 34331 ft 468 kts 338°
2026-04-30 19:40 53.44022 3.63362 34336 ft 468 kts 338°
2026-04-30 19:41 53.49980 3.59102 34344 ft 469 kts 337°
2026-04-30 19:41 53.55989 3.54781 34330 ft 470 kts 337°
2026-04-30 19:42 53.62079 3.50799 34323 ft 470 kts 345°
2026-04-30 19:42 53.68385 3.47829 34326 ft 470 kts 345°
2026-04-30 19:43 53.74690 3.44846 34336 ft 470 kts 345°
2026-04-30 19:44 53.84113 3.40356 34339 ft 471 kts 345°
2026-04-30 19:44 53.90429 3.37340 34344 ft 471 kts 345°
2026-04-30 19:45 53.96736 3.34309 34344 ft 471 kts 345°
2026-04-30 19:45 54.03045 3.31263 34345 ft 471 kts 345°
2026-04-30 19:46 54.09352 3.28227 34347 ft 471 kts 345°
2026-04-30 19:46 54.15635 3.25191 34352 ft 471 kts 345°
2026-04-30 19:47 54.21933 3.22136 34354 ft 471 kts 345°
2026-04-30 19:47 54.28244 3.19050 34366 ft 471 kts 345°
2026-04-30 19:48 54.34556 3.15965 34361 ft 472 kts 344°
2026-04-30 19:48 54.40872 3.12871 34358 ft 472 kts 344°
2026-04-30 19:49 54.47198 3.09749 34355 ft 473 kts 344°
2026-04-30 19:49 54.56653 3.05064 34365 ft 473 kts 344°
2026-04-30 19:50 54.62994 3.01933 34376 ft 473 kts 344°
2026-04-30 19:50 54.69337 2.98783 34377 ft 473 kts 344°
2026-04-30 19:51 54.75663 2.95617 34385 ft 473 kts 343°
2026-04-30 19:51 54.81989 2.92443 34390 ft 473 kts 343°
2026-04-30 19:52 54.88270 2.89299 34390 ft 473 kts 343°
2026-04-30 19:52 54.94591 2.86101 34399 ft 472 kts 343°
2026-04-30 19:53 55.00906 2.82898 34393 ft 472 kts 343°
2026-04-30 19:53 55.07217 2.79702 34395 ft 472 kts 343°
2026-04-30 19:54 55.13518 2.76488 34405 ft 471 kts 343°
2026-04-30 19:54 55.19775 2.73285 34401 ft 471 kts 343°
2026-04-30 19:55 55.26072 2.70057 34394 ft 471 kts 343°
2026-04-30 19:55 55.32374 2.66826 34391 ft 471 kts 343°
2026-04-30 19:56 55.38671 2.63581 34387 ft 471 kts 342°
2026-04-30 19:56 55.44976 2.60317 34383 ft 472 kts 343°
2026-04-30 19:57 55.51277 2.57042 34397 ft 472 kts 342°
2026-04-30 19:57 55.57571 2.53753 34392 ft 471 kts 342°
2026-04-30 19:58 55.63815 2.50484 34400 ft 471 kts 342°
2026-04-30 19:58 55.70097 2.47193 34396 ft 471 kts 342°
2026-04-30 19:59 55.76387 2.43893 34389 ft 471 kts 342°
2026-04-30 20:00 55.85811 2.38904 34391 ft 470 kts 342°
2026-04-30 20:00 55.91903 2.34753 34406 ft 469 kts 334°
2026-04-30 20:01 56.00772 2.27523 34404 ft 468 kts 334°
2026-04-30 20:01 56.06705 2.22678 34378 ft 469 kts 334°
2026-04-30 20:02 56.15628 2.15358 34378 ft 471 kts 333°
2026-04-30 20:03 56.24565 2.07962 34383 ft 472 kts 333°
2026-04-30 20:03 56.30532 2.03014 34391 ft 472 kts 333°
2026-04-30 20:04 56.36498 1.98057 34397 ft 472 kts 333°
2026-04-30 20:05 56.45404 1.90624 34395 ft 472 kts 333°
2026-04-30 20:05 56.54338 1.83111 34399 ft 471 kts 333°
2026-04-30 20:06 56.60291 1.78093 34415 ft 471 kts 333°
2026-04-30 20:06 56.66232 1.73072 34409 ft 471 kts 333°
2026-04-30 20:07 56.72181 1.68029 34391 ft 472 kts 333°
2026-04-30 20:08 56.81093 1.60423 34386 ft 474 kts 333°
2026-04-30 20:08 56.87073 1.55292 34393 ft 474 kts 332°
2026-04-30 20:09 56.93039 1.50167 34395 ft 474 kts 332°
2026-04-30 20:09 57.01878 1.42118 34392 ft 472 kts 329°
2026-04-30 20:10 57.10402 1.33228 34388 ft 471 kts 328°
2026-04-30 20:11 57.18984 1.24333 34396 ft 471 kts 328°
2026-04-30 20:11 57.24720 1.18479 34399 ft 471 kts 328°
2026-04-30 20:12 57.33291 1.09701 34375 ft 471 kts 327°
2026-04-30 20:13 57.39013 1.03758 34369 ft 471 kts 327°
2026-04-30 20:13 57.44730 0.97808 34360 ft 471 kts 327°
2026-04-30 20:14 57.49483 0.92861 34347 ft 471 kts 327°
2026-04-30 20:14 57.55195 0.86884 34344 ft 471 kts 327°
2026-04-30 20:15 57.60907 0.80889 34342 ft 471 kts 327°
2026-04-30 20:15 57.66630 0.74871 34362 ft 472 kts 327°
2026-04-30 20:16 57.72352 0.68827 34333 ft 473 kts 327°
2026-04-30 20:16 57.78090 0.62739 34330 ft 474 kts 327°
2026-04-30 20:17 57.83832 0.56609 34338 ft 476 kts 326°
2026-04-30 20:17 57.89597 0.50460 34325 ft 477 kts 326°
2026-04-30 20:18 57.95339 0.44308 34319 ft 477 kts 326°
2026-04-30 20:18 58.01103 0.38089 34335 ft 477 kts 326°
2026-04-30 20:19 58.06862 0.31847 34332 ft 477 kts 326°
2026-04-30 20:19 58.12615 0.25600 34335 ft 477 kts 326°
2026-04-30 20:20 58.18364 0.19350 34328 ft 476 kts 326°
2026-04-30 20:20 58.24116 0.13091 34345 ft 475 kts 325°
2026-04-30 20:21 58.29798 0.06862 34345 ft 473 kts 325°
2026-04-30 20:21 58.35493 0.00575 34343 ft 472 kts 325°
2026-04-30 20:22 58.41174 -0.05726 34340 ft 472 kts 324°
2026-04-30 20:22 58.46846 -0.12020 34332 ft 471 kts 324°
2026-04-30 20:23 58.52515 -0.18318 34342 ft 470 kts 324°
2026-04-30 20:23 58.58134 -0.24599 34335 ft 469 kts 324°
2026-04-30 20:24 58.63766 -0.30929 34326 ft 469 kts 324°
2026-04-30 20:24 58.69397 -0.37268 34322 ft 468 kts 324°
2026-04-30 20:25 58.77830 -0.46810 34311 ft 468 kts 324°
2026-04-30 20:26 58.86217 -0.56353 34306 ft 468 kts 324°
2026-04-30 20:26 58.94632 -0.65983 34305 ft 468 kts 323°
2026-04-30 20:27 59.05829 -0.78907 34309 ft 468 kts 323°
2026-04-30 20:28 59.17001 -0.91876 34296 ft 467 kts 323°
2026-04-30 20:30 59.30906 -1.08165 34281 ft 467 kts 323°
2026-04-30 20:31 59.47572 -1.27917 34276 ft 466 kts 322°
2026-04-30 20:32 59.55333 -1.38925 34283 ft 452 kts 307°
2026-04-30 20:32 59.59041 -1.48720 34275 ft 443 kts 297°
2026-04-30 20:33 59.64208 -1.63853 34281 ft 442 kts 298°
2026-04-30 20:33 59.65934 -1.68900 34456 ft 442 kts 298°
2026-04-30 20:34 59.69366 -1.78962 34936 ft 441 kts 298°
2026-04-30 20:34 59.72758 -1.88962 35418 ft 440 kts 298°
2026-04-30 20:35 59.74462 -1.94003 35671 ft 439 kts 298°
2026-04-30 20:35 59.76159 -1.99029 35939 ft 438 kts 298°
2026-04-30 20:35 59.79543 -2.09109 36240 ft 440 kts 298°
2026-04-30 20:36 59.82937 -2.19297 36239 ft 443 kts 298°
2026-04-30 20:37 59.88016 -2.34588 36241 ft 443 kts 298°
2026-04-30 20:37 59.91399 -2.44833 36230 ft 442 kts 298°
2026-04-30 20:38 59.94777 -2.55080 36233 ft 442 kts 298°
2026-04-30 20:38 59.98150 -2.65365 36251 ft 442 kts 297°
2026-04-30 20:39 60.03195 -2.80847 36239 ft 443 kts 297°
2026-04-30 20:40 60.08228 -2.96393 36225 ft 443 kts 297°
2026-04-30 20:40 60.11570 -3.06772 36223 ft 443 kts 297°
2026-04-30 20:41 60.16547 -3.22333 36238 ft 443 kts 297°
2026-04-30 20:41 60.19868 -3.32748 36240 ft 442 kts 297°
2026-04-30 20:42 60.23169 -3.43181 36234 ft 442 kts 296°
2026-04-30 20:43 60.28120 -3.58888 36214 ft 443 kts 296°
2026-04-30 20:43 60.31411 -3.69390 36210 ft 443 kts 296°
2026-04-30 20:44 60.36330 -3.85168 36204 ft 443 kts 296°
2026-04-30 20:45 60.42829 -4.06217 36237 ft 442 kts 295°
2026-04-30 20:45 60.46075 -4.16800 36222 ft 442 kts 295°
2026-04-30 20:46 60.52534 -4.37991 36202 ft 441 kts 295°
2026-04-30 20:47 60.57359 -4.53936 36197 ft 441 kts 295°
2026-04-30 20:48 60.62150 -4.69871 36197 ft 441 kts 295°
2026-04-30 20:48 60.65338 -4.80564 36218 ft 441 kts 294°
2026-04-30 20:49 60.68517 -4.91257 36209 ft 440 kts 294°
2026-04-30 20:50 60.73278 -5.07304 36204 ft 439 kts 294°
2026-04-30 20:50 60.76399 -5.17957 36197 ft 439 kts 293°
2026-04-30 20:51 60.79536 -5.28691 36190 ft 439 kts 293°
2026-04-30 20:51 60.84225 -5.44834 36192 ft 439 kts 293°
2026-04-30 20:52 60.87340 -5.55625 36200 ft 439 kts 293°
2026-04-30 20:53 60.91996 -5.71857 36190 ft 440 kts 293°
2026-04-30 20:53 60.95096 -5.82691 36215 ft 439 kts 292°
2026-04-30 20:54 60.99720 -5.98968 36198 ft 438 kts 292°
2026-04-30 20:55 61.04203 -6.15269 36190 ft 437 kts 291°
2026-04-30 20:55 61.07147 -6.26251 36211 ft 436 kts 291°
2026-04-30 20:56 61.11566 -6.42716 36194 ft 436 kts 291°
2026-04-30 20:57 61.15974 -6.59191 36186 ft 436 kts 291°
2026-04-30 20:57 61.18891 -6.70200 36206 ft 435 kts 291°
2026-04-30 20:58 61.23245 -6.86715 36192 ft 434 kts 291°
2026-04-30 20:58 61.26141 -6.97737 36187 ft 434 kts 291°
2026-04-30 20:59 61.30438 -7.14197 36195 ft 434 kts 291°
2026-04-30 21:00 61.36143 -7.36328 36171 ft 433 kts 291°
2026-04-30 21:01 61.39932 -7.51095 36169 ft 433 kts 291°
2026-04-30 21:02 61.44178 -7.67767 36165 ft 433 kts 290°
2026-04-30 21:02 61.46992 -7.78914 36163 ft 433 kts 290°
2026-04-30 21:03 61.49796 -7.90070 36159 ft 433 kts 290°
2026-04-30 21:03 61.52595 -8.01260 36157 ft 433 kts 290°
2026-04-30 21:04 61.55368 -8.12386 36161 ft 433 kts 290°
2026-04-30 21:04 61.59529 -8.29230 36160 ft 433 kts 290°
2026-04-30 21:05 61.62298 -8.40488 36161 ft 433 kts 290°
2026-04-30 21:05 61.65052 -8.51749 36159 ft 433 kts 290°
2026-04-30 21:06 61.67803 -8.63044 36162 ft 432 kts 290°
2026-04-30 21:06 61.70544 -8.74333 36146 ft 432 kts 290°
2026-04-30 21:07 61.73266 -8.85641 36157 ft 432 kts 290°
2026-04-30 21:07 61.75958 -8.96903 36148 ft 433 kts 289°
2026-04-30 21:08 61.78664 -9.08268 36151 ft 433 kts 289°
2026-04-30 21:08 61.81369 -9.19645 36143 ft 433 kts 289°
2026-04-30 21:09 61.84053 -9.31042 36156 ft 433 kts 289°
2026-04-30 21:09 61.86732 -9.42453 36166 ft 432 kts 289°
2026-04-30 21:10 61.89400 -9.53866 36154 ft 432 kts 289°
2026-04-30 21:10 61.92024 -9.65181 36145 ft 429 kts 289°
2026-04-30 21:11 61.94649 -9.76555 36138 ft 429 kts 289°
2026-04-30 21:11 61.97251 -9.87944 36128 ft 426 kts 289°
2026-04-30 21:12 61.99783 -9.99256 36105 ft 419 kts 285°
2026-04-30 21:12 62.01590 -10.10860 36093 ft 410 kts 281°
2026-04-30 21:13 62.03284 -10.22417 36125 ft 415 kts 281°
2026-04-30 21:13 62.05021 -10.34288 36124 ft 422 kts 281°
2026-04-30 21:14 62.06762 -10.46267 36128 ft 423 kts 281°
2026-04-30 21:14 62.08486 -10.58282 36128 ft 423 kts 281°
2026-04-30 21:15 62.10182 -10.70214 36125 ft 423 kts 281°
2026-04-30 21:15 62.11877 -10.82249 36157 ft 423 kts 281°
2026-04-30 21:16 62.13567 -10.94289 36159 ft 423 kts 282°
2026-04-30 21:16 62.15247 -11.06347 36139 ft 423 kts 282°
2026-04-30 21:17 62.16920 -11.18421 36132 ft 423 kts 282°
2026-04-30 21:17 62.18574 -11.30531 36120 ft 423 kts 281°
2026-04-30 21:18 62.20211 -11.42570 36118 ft 424 kts 281°
2026-04-30 21:18 62.21856 -11.54712 36115 ft 424 kts 281°
2026-04-30 21:19 62.23487 -11.66865 36115 ft 424 kts 281°
2026-04-30 21:19 62.25100 -11.79010 36118 ft 423 kts 281°
2026-04-30 21:20 62.26699 -11.91173 36109 ft 423 kts 281°
2026-04-30 21:20 62.28289 -12.03346 36105 ft 423 kts 281°
2026-04-30 21:21 62.29865 -12.15465 36156 ft 423 kts 281°
2026-04-30 21:22 62.32216 -12.33669 36096 ft 420 kts 281°
2026-04-30 21:23 62.35310 -12.57961 36115 ft 420 kts 281°
2026-04-30 21:23 62.37592 -12.76159 36106 ft 419 kts 281°
2026-04-30 21:24 62.39079 -12.88194 36106 ft 418 kts 280°
2026-04-30 21:24 62.40569 -13.00326 36089 ft 418 kts 280°
2026-04-30 21:25 62.42784 -13.18516 36080 ft 417 kts 280°
2026-04-30 21:26 62.44977 -13.36708 36087 ft 417 kts 280°
2026-04-30 21:27 62.47136 -13.54893 36086 ft 416 kts 280°
2026-04-30 21:27 62.48559 -13.66985 36059 ft 413 kts 280°
2026-04-30 21:28 62.50658 -13.84983 36055 ft 413 kts 279°
2026-04-30 21:29 62.52741 -14.03113 36056 ft 414 kts 279°
2026-04-30 21:30 62.56163 -14.33399 36046 ft 414 kts 279°
2026-04-30 21:31 62.59520 -14.63769 36046 ft 414 kts 279°
2026-04-30 21:32 62.61506 -14.82015 36038 ft 414 kts 279°
2026-04-30 21:32 62.62808 -14.94197 36040 ft 414 kts 279°
2026-04-30 21:33 62.64756 -15.12466 36028 ft 413 kts 279°
2026-04-30 21:34 62.66028 -15.24548 36020 ft 413 kts 279°
2026-04-30 21:34 62.67926 -15.42852 36013 ft 414 kts 279°
2026-04-30 21:35 62.69186 -15.55069 36017 ft 414 kts 279°
2026-04-30 21:35 62.70430 -15.67313 36017 ft 414 kts 278°
2026-04-30 21:36 62.71665 -15.79577 36019 ft 414 kts 278°
2026-04-30 21:37 62.74097 -16.04114 36012 ft 414 kts 278°
2026-04-30 21:37 62.75289 -16.16310 36013 ft 414 kts 278°
2026-04-30 21:38 62.76486 -16.28592 36011 ft 414 kts 278°
2026-04-30 21:38 62.77669 -16.40887 36012 ft 414 kts 278°
2026-04-30 21:39 62.78840 -16.53195 36002 ft 413 kts 278°
2026-04-30 21:39 62.79990 -16.65501 35990 ft 413 kts 278°
2026-04-30 21:40 62.81136 -16.77835 35990 ft 414 kts 278°
2026-04-30 21:40 62.82273 -16.90176 35990 ft 414 kts 278°
2026-04-30 21:41 62.83403 -17.02537 35988 ft 414 kts 278°
2026-04-30 21:41 62.84519 -17.14907 35981 ft 414 kts 278°
2026-04-30 21:42 62.85621 -17.27214 35979 ft 414 kts 278°
2026-04-30 21:42 62.86717 -17.39607 35980 ft 414 kts 278°
2026-04-30 21:43 62.87618 -17.49906 35963 ft 414 kts 278°
2026-04-30 21:43 62.88882 -17.64422 35958 ft 414 kts 278°
2026-04-30 21:44 62.89938 -17.76764 35959 ft 414 kts 278°
2026-04-30 21:44 62.90989 -17.89199 35963 ft 414 kts 278°
2026-04-30 21:45 62.92024 -18.01636 35959 ft 413 kts 278°
2026-04-30 21:45 62.93050 -18.14035 35954 ft 413 kts 278°
2026-04-30 21:46 62.94064 -18.26387 35939 ft 413 kts 278°
2026-04-30 21:46 62.95069 -18.38826 35943 ft 413 kts 278°
2026-04-30 21:47 62.96060 -18.51280 35940 ft 413 kts 278°
2026-04-30 21:47 62.97043 -18.63750 35947 ft 413 kts 278°
2026-04-30 21:48 62.98417 -18.75955 35937 ft 417 kts 290°
2026-04-30 21:48 63.01505 -18.86904 35937 ft 424 kts 302°
2026-04-30 21:49 63.04978 -18.97423 35944 ft 424 kts 301°
2026-04-30 21:49 63.08427 -19.08010 35720 ft 425 kts 301°
2026-04-30 21:50 63.10152 -19.13328 35274 ft 426 kts 301°
2026-04-30 21:50 63.11292 -19.16845 34929 ft 425 kts 301°
2026-04-30 21:50 63.13578 -19.23894 34260 ft 424 kts 301°
2026-04-30 21:50 63.15292 -19.29183 33725 ft 422 kts 301°
2026-04-30 21:51 63.16998 -19.34463 33127 ft 421 kts 301°
2026-04-30 21:51 63.18145 -19.38024 32730 ft 420 kts 300°
2026-04-30 21:51 63.19838 -19.43302 32144 ft 419 kts 300°
2026-04-30 21:51 63.21494 -19.48484 31582 ft 417 kts 300°
2026-04-30 21:52 63.23168 -19.53733 31019 ft 416 kts 300°
2026-04-30 21:52 63.24835 -19.58972 30481 ft 414 kts 300°
2026-04-30 21:52 63.26498 -19.64200 29930 ft 413 kts 300°
2026-04-30 21:52 63.28153 -19.69412 29295 ft 412 kts 300°
2026-04-30 21:53 63.29805 -19.74625 28672 ft 413 kts 300°
2026-04-30 21:53 63.31462 -19.79859 28063 ft 413 kts 300°
2026-04-30 21:53 63.33118 -19.85103 27465 ft 414 kts 300°
2026-04-30 21:53 63.34754 -19.90299 26877 ft 415 kts 300°
2026-04-30 21:54 63.36434 -19.95643 26302 ft 416 kts 300°
2026-04-30 21:54 63.38094 -20.00946 25741 ft 417 kts 300°
2026-04-30 21:54 63.39751 -20.06254 25193 ft 418 kts 300°
2026-04-30 21:54 63.41395 -20.11536 24662 ft 419 kts 300°
2026-04-30 21:55 63.43054 -20.16878 24121 ft 418 kts 300°
2026-04-30 21:55 63.44707 -20.22194 23608 ft 415 kts 300°
2026-04-30 21:55 63.46350 -20.27485 23013 ft 411 kts 299°
2026-04-30 21:55 63.47969 -20.32720 22340 ft 407 kts 299°
2026-04-30 21:56 63.49569 -20.37910 21637 ft 402 kts 299°
2026-04-30 21:56 63.51145 -20.43032 20957 ft 397 kts 299°
2026-04-30 21:56 63.52684 -20.48053 20352 ft 393 kts 299°
2026-04-30 21:56 63.54224 -20.53094 19693 ft 390 kts 299°
2026-04-30 21:57 63.55750 -20.58100 19053 ft 387 kts 298°
2026-04-30 21:57 63.57269 -20.63064 18416 ft 384 kts 299°
2026-04-30 21:57 63.58784 -20.67980 17745 ft 381 kts 299°
2026-04-30 21:57 63.60292 -20.72855 17047 ft 378 kts 299°
2026-04-30 21:58 63.61785 -20.77689 16340 ft 374 kts 299°
2026-04-30 21:58 63.63262 -20.82483 15662 ft 371 kts 299°
2026-04-30 21:58 63.64725 -20.87242 14999 ft 368 kts 299°
2026-04-30 21:58 63.66173 -20.91977 14353 ft 365 kts 299°
2026-04-30 21:59 63.67607 -20.96679 13732 ft 362 kts 299°
2026-04-30 21:59 63.69013 -21.01296 13051 ft 360 kts 299°
2026-04-30 21:59 63.70428 -21.05950 12345 ft 359 kts 299°
2026-04-30 22:00 63.73153 -21.14907 11889 ft 329 kts 299°
2026-04-30 22:00 63.75614 -21.23033 11671 ft 299 kts 299°
2026-04-30 22:00 63.76761 -21.26827 11538 ft 287 kts 298°
2026-04-30 22:01 63.77860 -21.30480 11408 ft 275 kts 298°
2026-04-30 22:01 63.78915 -21.34002 11263 ft 265 kts 298°
2026-04-30 22:01 63.79942 -21.37460 10899 ft 265 kts 298°
2026-04-30 22:01 63.80971 -21.40940 10481 ft 266 kts 298°
2026-04-30 22:02 63.82002 -21.44423 10080 ft 266 kts 298°
2026-04-30 22:02 63.83036 -21.47912 9674 ft 267 kts 298°
2026-04-30 22:02 63.84059 -21.51357 9234 ft 267 kts 299°
2026-04-30 22:02 63.85096 -21.54855 8797 ft 267 kts 299°
2026-04-30 22:03 63.86130 -21.58342 8367 ft 266 kts 299°
2026-04-30 22:03 63.87162 -21.61828 7944 ft 266 kts 299°
2026-04-30 22:03 63.88192 -21.65315 7525 ft 266 kts 299°
2026-04-30 22:03 63.89222 -21.68814 7106 ft 266 kts 299°
2026-04-30 22:04 63.90246 -21.72305 6701 ft 266 kts 299°
2026-04-30 22:04 63.91273 -21.75797 6288 ft 265 kts 300°
2026-04-30 22:04 63.93287 -21.82649 5350 ft 256 kts 300°
2026-04-30 22:05 63.94271 -21.85999 4826 ft 253 kts 300°
2026-04-30 22:05 63.95232 -21.89271 4296 ft 251 kts 300°
2026-04-30 22:05 63.96194 -21.92550 3901 ft 244 kts 301°
2026-04-30 22:05 63.97120 -21.95705 3535 ft 235 kts 301°
2026-04-30 22:06 63.97988 -21.98802 3146 ft 229 kts 294°
2026-04-30 22:06 63.98362 -22.05905 3027 ft 217 kts 270°
2026-04-30 22:06 63.98390 -22.09249 2996 ft 207 kts 269°
2026-04-30 22:07 63.98399 -22.12464 2983 ft 205 kts 269°
2026-04-30 22:07 63.98406 -22.15715 2975 ft 205 kts 269°
2026-04-30 22:07 63.98428 -22.18914 2947 ft 197 kts 272°
2026-04-30 22:07 63.98469 -22.22035 2928 ft 201 kts 270°
2026-04-30 22:08 63.98503 -22.25333 3007 ft 212 kts 270°
2026-04-30 22:08 63.98514 -22.28718 2973 ft 212 kts 267°
2026-04-30 22:08 63.98476 -22.32035 2635 ft 207 kts 268°
2026-04-30 22:08 63.98462 -22.35289 2249 ft 202 kts 269°
2026-04-30 22:09 63.98472 -22.38366 2051 ft 191 kts 269°
2026-04-30 22:09 63.98480 -22.41314 1834 ft 182 kts 269°
2026-04-30 22:09 63.98484 -22.44123 1554 ft 171 kts 269°
2026-04-30 22:09 63.98492 -22.46739 1328 ft 158 kts 269°
2026-04-30 22:10 63.98494 -22.49143 1090 ft 148 kts 269°
2026-04-30 22:10 63.98496 -22.51406 892 ft 137 kts 269°
2026-04-30 22:10 63.98498 -22.53571 702 ft 138 kts 269°
2026-04-30 22:10 63.98499 -22.55763 523 ft 138 kts 268°
2026-04-30 22:11 63.98504 -22.60071 189 ft 136 kts 268°
2026-04-30 22:11 63.98504 -22.62026 152 ft 104 kts 270°
2026-04-30 22:11 63.98503 -22.63254 137 ft 39 kts 270°
2026-04-30 22:12 63.98545 -22.63760 135 ft 32 kts 294°
2026-04-30 22:12 63.98636 -22.64100 120 ft 18 kts 322°
2026-04-30 22:12 63.98763 -22.64156 119 ft 19 kts
2026-04-30 22:12 63.98801 -22.64153 122 ft 0 kts
2026-04-30 22:13 63.98810 -22.64152 123 ft 5 kts
2026-04-30 22:13 63.98852 -22.64032 123 ft 14 kts 84°
2026-04-30 22:13 63.98853 -22.63810 125 ft 14 kts 90°
2026-04-30 22:13 63.98853 -22.63610 127 ft 11 kts 90°
2026-04-30 22:14 63.98853 -22.63456 130 ft 12 kts 90°
2026-04-30 22:14 63.98853 -22.63227 134 ft 14 kts 89°
2026-04-30 22:14 63.98854 -22.63020 136 ft 12 kts 90°
2026-04-30 22:14 63.98885 -22.62879 137 ft 12 kts 26°
2026-04-30 22:15 63.98960 -22.62826 138 ft 10 kts 17°
2026-04-30 22:15 63.99029 -22.62777 140 ft 13 kts 18°
2026-04-30 22:15 63.99119 -22.62713 141 ft 13 kts 16°
2026-04-30 22:15 63.99198 -22.62674 142 ft 11 kts
2026-04-30 22:16 63.99263 -22.62731 142 ft 9 kts 329°
2026-04-30 22:16 63.99322 -22.62744 142 ft 8 kts
2026-04-30 22:17 63.99485 -22.62586 142 ft 5 kts 84°
2026-04-30 22:17 63.99484 -22.62507 142 ft 5 kts 90°
2026-04-30 22:17 63.99484 -22.62462 142 ft 0 kts 90°